AO-07 1 07530U 74089B 20149.46008046 -.00000029 00000-0 10287-3 0 9990 2 07530 101.7984 119.3135 0012566 043.8273 067.7682 12.53643571083483 UO-11 1 14781U 84021B 20149.52217722 .00000043 00000-0 11337-4 0 9996 2 14781 097.5907 162.4877 0006906 266.1504 093.8921 14.83168007928874 LO-19 1 20442U 90005G 20149.82141791 .00000012 00000-0 20910-4 0 9994 2 20442 98.6910 97.0048 0011120 207.9665 152.0922 14.32953447585804 HUBBLE 1 20580U 90037B 20149.13474524 .00000352 00000-0 10387-4 0 9993 2 20580 28.4694 94.0521 0002552 228.6703 261.1417 15.09389403452985 MET-2/21 1 22782U 93055A 20149.42387347 .00000049 00000-0 30820-4 0 9997 2 22782 082.5504 249.4716 0021085 292.4138 136.5139 13.83827427350275 AO-27 1 22825U 93061C 20149.78246825 -.00000013 00000-0 13016-4 0 9996 2 22825 98.9234 151.7399 0009512 76.4168 283.8072 14.30085539391270 IO-26 1 22826U 93061D 20149.49370150 -.00000010 00000-0 14028-4 0 9995 2 22826 098.9175 151.3932 0009977 066.4730 293.7499 14.30421045391193 FO-29 1 24278U 96046B 20149.27783412 -.00000031 00000-0 20127-5 0 9990 2 24278 098.5812 261.7535 0351212 067.1821 296.6012 13.53097575174155 NOAA-15 1 25338U 98030A 20149.50661298 .00000074 00000-0 49640-4 0 9992 2 25338 098.7181 174.6578 0009610 326.3861 033.6708 14.25967937146135 GO-32 1 25397U 98043D 20149.83715915 -.00000005 00000-0 17248-4 0 9997 2 25397 98.7274 91.4845 0002330 103.1456 256.9982 14.23685317136982 ISS 1 25544U 98067A 20149.87174847 .00000715 00000-0 20865-4 0 9990 2 25544 51.6450 84.0707 0001897 8.7970 32.5061 15.49398379229025 NO-44 1 26931U 01043C 20149.10433476 -.00000043 00000-0 15169-4 0 9997 2 26931 67.0503 194.9089 0005875 269.6306 90.4122 14.30577929974231 SO-50 1 27607U 02058C 20149.84995108 -.00000037 00000-0 15389-4 0 9998 2 27607 64.5562 74.3039 0050384 182.5715 177.5136 14.75636128937964 CO-55 1 27844U 03031E 20149.45252219 .00000038 00000-0 36881-4 0 9999 2 27844 098.6819 157.4899 0011058 111.0244 249.2118 14.22239283877251 CO-57 1 27848U 03031J 20149.82521866 .00000030 00000-0 33275-4 0 9997 2 27848 98.6886 158.4121 0010839 121.1879 239.0363 14.21825831877180 RS-22 1 27939U 03042A 20149.87729255 .00000024 00000-0 12869-4 0 9996 2 27939 98.0886 284.9605 0014047 59.1103 301.1482 14.66861845891141 NOAA-18 1 28654U 05018A 20149.47091394 .00000060 00000-0 57267-4 0 9999 2 28654 099.0450 205.7115 0013151 288.4081 071.5660 14.12513592774092 CO-58 1 28895U 05043F 20148.90678893 .00000099 00000-0 27982-4 0 9999 2 28895 098.0068 285.8407 0016400 350.5114 009.5777 14.63769821777608 Falconsat-3 1 30776U 07006E 20148.97275169 .00002254 00000-0 60766-4 0 9999 2 30776 35.4354 51.0388 0002876 332.0705 27.9868 15.37728587733687 CO-65 1 32785U 08021C 20149.09717383 .00000168 00000-0 23645-4 0 9999 2 32785 97.5722 138.0105 0012492 194.1511 165.9358 14.88468754654914 AAUSAT2 1 32788U 08021F 20149.50781250 .00000591 00000-0 58885-4 0 9996 2 32788 097.4914 154.8942 0013241 118.6497 241.6058 14.95051797656331 DO-64 1 32789U 08021G 20149.22529395 .00000776 00000-0 54729-4 0 9994 2 32789 097.4195 192.7332 0012850 033.0653 327.1376 15.07695721658763 CO-66 1 32791U 08021J 20149.46881966 .00000379 00000-0 43641-4 0 9998 2 32791 097.5403 144.5029 0013673 162.5835 197.5855 14.91044550655400 RS-30 1 32953U 08025A 20149.67847776 .00000037 00000-0 19437-3 0 9992 2 32953 82.5003 290.2003 0020142 97.5909 262.7455 12.43096202545178 PRISM 1 33493U 09002B 20149.80337751 -.00000064 00000-0 59853-7 0 9991 2 33493 98.1441 89.2811 0016170 116.6528 243.6351 14.97030176616773 NOAA-19 1 33591U 09005A 20149.54425818 .00000044 00000-0 49263-4 0 9994 2 33591 099.1956 154.3745 0014804 129.2053 231.0434 14.12410880582326 TISAT-1 1 36799U 10035E 20148.43650952 .00000240 00000-0 30182-4 0 9996 2 36799 98.1931 317.9044 0013155 44.1850 316.0415 14.91350379535995 JUGNU 1 37839U 11058B 20149.85806132 .00000303 00000-0 19548-4 0 9991 2 37839 19.9622 41.5964 0019068 172.1031 249.6572 14.12680694446122 SRMSAT 1 37841U 11058D 20149.28723490 .00000290 00000-0 14460-4 0 9999 2 37841 019.9715 108.9680 0011849 023.2040 119.1184 14.10659274445314 AO-71 1 37854U 11061E 20148.85341608 .00001420 00000-0 78557-4 0 9999 2 37854 101.6992 229.4783 0158666 123.0812 238.5748 15.07244973468378 HRBE 1 37855U 11061F 20149.11794059 .00001353 00000-0 74037-4 0 9996 2 37855 101.7128 227.0475 0171301 135.3066 226.2099 15.06259192468619 HORYU-2 1 38340U 12025D 20149.07417861 .00000134 00000-0 27497-4 0 9999 2 38340 098.2819 202.1128 0012878 105.2278 255.0356 14.75850787421548 RS-40 1 38735U 12041C 20149.40143752 .00000029 00000-0 13581-3 0 9998 2 38735 082.4786 013.1704 0016371 202.8460 157.1892 12.42579995355367 BEESAT-3 1 39135U 13015F 20149.80919899 .00000684 00000-0 42744-4 0 9993 2 39135 64.8659 4.8562 0037220 251.2881 108.4205 15.18143310392626 BEESAT-2 1 39136U 13015G 20149.78301032 .00000698 00000-0 44258-4 0 9992 2 39136 64.8696 9.8443 0029935 280.5994 79.1761 15.17536286392522 ZACUBE-1 1 39417U 13066B 20149.50504903 .00000178 00000-0 28680-4 0 9996 2 39417 097.5645 148.6379 0058402 344.9026 015.0442 14.81271157352088 TRITON-1 1 39427U 13066M 20149.84804066 .00000151 00000-0 31757-4 0 9997 2 39427 97.7233 111.8663 0114327 140.1865 220.7822 14.67997078348980 GOMX-1 1 39430U 13066Q 20149.85325097 .00000151 00000-0 36859-4 0 9992 2 39430 97.7905 89.5659 0149554 246.2316 112.3153 14.59396066346943 LO-74 1 39440U 13066AA 20149.49128043 .00000188 00000-0 32959-4 0 9992 2 39440 097.6298 133.0966 0081294 045.8436 314.9420 14.76007124349635 AO-73 1 39444U 13066AE 20148.97417027 .00000237 00000-0 35438-4 0 9991 2 39444 97.5590 150.3559 0057356 338.9332 20.9520 14.82122573350928 SPROUT 1 39770U 14029E 20149.77756330 .00000472 00000-0 57799-4 0 9990 2 39770 97.8944 256.1397 0009738 39.6023 320.5885 14.87747261326135 DUCHIFAT-1 1 40021U 14033M 20148.33975076 .00000326 00000-0 38924-4 0 9994 2 40021 097.9424 079.4468 0013072 004.2545 355.8781 14.90896725322741 NANOSATCBR1 1 40024U 14033Q 20149.22386227 .00000290 00000-0 35954-4 0 9990 2 40024 097.9273 076.7821 0012397 005.8876 354.2485 14.90067639322223 DTUSAT-2 1 40030U 14033W 20149.72458646 .00000209 00000-0 28370-4 0 9991 2 40030 97.9035 71.5466 0012137 7.7160 352.4241 14.88709990322582 EO-80 1 40032U 14033Y 20149.47393716 .00000213 00000-0 28814-4 0 9999 2 40032 097.9041 071.2987 0012090 009.3130 350.8309 14.88658171322018 ANTELSAT 1 40034U 14033AA 20149.51522635 .00000150 00000-0 29421-4 0 9995 2 40034 097.7168 006.1632 0060035 063.7670 296.9693 14.74252833318940 VELOX-1 1 40057U 14034E 20149.79843512 .00000222 00000-0 38552-4 0 9996 2 40057 98.2777 286.2273 0010440 201.7331 158.3438 14.77866701318735 DAURIA DX 1 1 40071U 14037C 20149.79346445 .00000078 00000-0 17481-4 0 9995 2 40071 98.4592 327.1084 0008052 192.2523 167.8497 14.81363480318344 HODOYOSHI-1 1 40299U 14070B 20149.83185888 .00000475 00000-0 22445-4 0 9998 2 40299 97.3226 227.0236 0011312 265.5319 217.3615 15.24054048308825 CHUBUSAT-1 1 40300U 14070C 20149.76469029 .00000524 00000-0 25487-4 0 9999 2 40300 97.2872 219.5123 0018509 284.6038 191.0506 15.22494705308519 QSAT-EOS 1 40301U 14070D 20149.86501376 .00001322 00000-0 52422-4 0 9999 2 40301 97.2929 224.7535 0023399 257.1139 215.3268 15.26902949308948 FIREBIRD FU3 1 40377U 15003B 20149.11970469 .00001632 00000-0 66025-4 0 9998 2 40377 099.0960 205.1619 0124254 022.5492 338.1132 15.20020603294210 FIREBIRD FU4 1 40378U 15003C 20149.23582042 .00001611 00000-0 65152-4 0 9995 2 40378 99.0962 205.3989 0124400 22.0360 338.6153 15.20036179294243 GRIFEX 1 40379U 15003D 20149.81701349 .00001287 00000-0 57424-4 0 9995 2 40379 99.1035 198.1306 0133676 44.5734 316.6152 15.16380526293873 NO-84 1 40654U 15025D 20148.34101071 .00012404 00000-0 14498-3 0 9411 2 40654 54.9874 38.0093 0120592 132.2251 228.9151 15.53696047165743 DEORBITSAIL 1 40719U 15032E 20149.78709365 .00000311 00000-0 51199-4 0 9997 2 40719 97.8722 38.9119 0014811 273.0210 86.9305 14.76993602263198 NUDT-PHONESAT 1 40900U 15049B 20149.82979459 .00001868 00000-0 79808-4 0 9990 2 40900 97.4307 160.9545 0014073 58.1572 66.3979 15.24044647260205 XW-2A 1 40903U 15049E 20149.79546822 .00001660 00000-0 39505-4 0 9993 2 40903 97.2888 198.7324 0012559 342.6447 128.7906 15.43032125263444 XW-2C 1 40906U 15049H 20149.84728190 .00000369 00000-0 22620-4 0 9997 2 40906 97.4764 151.4862 0016439 83.0751 36.1984 15.16055531259281 XW-2D 1 40907U 15049J 20149.84411088 .00000431 00000-0 25675-4 0 9996 2 40907 97.4752 151.1875 0015787 80.1421 39.5593 15.16286273259302 LILACSAT-2 1 40908U 15049K 20149.81946938 .00000299 00000-0 20018-4 0 9999 2 40908 97.4910 149.5422 0017525 88.6662 33.2899 15.14031697259025 XW-2E 1 40909U 15049L 20149.84577755 .00000731 00000-0 38743-4 0 9995 2 40909 97.4632 154.6349 0015106 73.0694 47.6140 15.18402218259559 XW-2F 1 40910U 15049M 20149.72210656 .00000923 00000-0 48735-4 0 9993 2 40910 97.4674 153.6113 0016380 70.4474 39.4758 15.17913117259342 XW-2B 1 40911U 15049N 20149.82747748 .00000476 00000-0 28031-4 0 9992 2 40911 97.4761 151.8654 0015692 80.4313 41.3731 15.16212033259192 DCBB 1 40912U 15049P 20149.81616987 .00001084 00000-0 52949-4 0 9993 2 40912 97.4488 157.8317 0016163 52.0514 73.6966 15.20303167259735 TW-1C 1 40926U 15051B 20149.87252134 .00018790 00000-0 19129-3 0 9991 2 40926 97.0849 201.5246 0007615 149.2132 263.3776 15.65146248263963 TW-1A 1 40928U 15051D 20149.75068953 .00002524 00000-0 60044-4 0 9995 2 40928 97.1097 178.0608 0008652 257.0045 216.1703 15.42522664262335 IO-86 1 40931U 15052B 20148.41113413 .00000695 00000-0 75883-5 0 9999 2 40931 005.9943 125.5183 0013714 340.7212 019.2704 14.76635635252142 LQSat 1 40958U 15057A 20149.21633771 -.00000001 00000-0 74337-5 0 9991 2 40958 97.8536 213.2482 0017395 211.0997 148.9183 14.73119969249528 ATHENOXAT-1 1 41168U 15077C 20149.80567766 .00001528 00000-0 44153-4 0 9998 2 41168 14.9876 205.5764 0011185 215.7452 144.2120 15.14348882246367 ChubuSat-2 1 41338U 16012B 20149.27630284 .00000250 00000-0 12601-4 0 9998 2 41338 31.0027 114.6729 0013800 276.5020 83.4044 15.00290039234706 ChubuSat-3 1 41339U 16012C 20149.27315864 .00000203 00000-0 89408-5 0 9991 2 41339 31.0114 112.3557 0013753 284.6150 75.2961 15.00454948234707 Horyu-4 1 41340U 16012D 20149.15665724 .00000374 00000-0 21518-4 0 9999 2 41340 031.0048 101.0401 0013903 306.7979 053.1381 15.01492246234828 OUFTI-1 1 41458U 16025C 20149.22888042 .00000646 00000-0 36843-4 0 9990 2 41458 098.1032 258.7361 0162126 277.8818 080.4033 15.06801725224436 e-st@r-II 1 41459U 16025D 20149.80006590 -.00000043 00000-0 26682-5 0 9998 2 41459 98.1017 258.7679 0163559 277.9199 80.3484 15.06363648224487 AAUSAT4 1 41460U 16025E 20149.70184019 .00001726 00000-0 88428-4 0 9995 2 41460 98.1002 260.9236 0152822 267.0726 91.3003 15.08649832224667 LO-87 1 41557U 16033B 20149.79855679 .00000998 00000-0 39207-4 0 9998 2 41557 97.4029 240.1505 0014373 151.4466 208.7563 15.27982613222772 NuSat2 1 41558U 16033C 20149.78943618 .00001113 00000-0 40919-4 0 9991 2 41558 97.4082 242.3705 0013471 148.6230 211.5817 15.29963076222883 Lapan A3 1 41603U 16040E 20149.85575750 .00000143 00000-0 97518-5 0 9996 2 41603 97.3094 204.0118 0011843 272.2848 198.2437 15.19835449218165 Swayam 1 41607U 16040J 20148.71794620 .00001132 00000-0 49285-4 0 9999 2 41607 97.3187 208.5760 0011359 258.3383 101.6580 15.24189123218260 Pratham 1 41783U 16059A 20149.22877590 .00000032 00000-0 15303-4 0 9991 2 41783 098.0177 205.2554 0033998 022.3076 337.9597 14.63055960195920 AlSat 1N 1 41789U 16059G 20149.67366665 .00000058 00000-0 19836-4 0 9995 2 41789 98.0208 208.4585 0028570 9.0369 351.1342 14.64319948196137 ScatSat 1 41790U 16059H 20149.81186770 .00000095 00000-0 34976-4 0 9993 2 41790 98.1623 190.6815 0005883 355.1765 4.9403 14.50912456194379 TY-1 1 41844U 16066D 20149.81942306 .00000773 00000-0 33961-4 0 9992 2 41844 97.4032 158.2100 0016509 56.8139 68.2057 15.24825026197277 Pegasus-1 1 41846U 16066F 20149.66362985 .00000137 00000-0 32134-4 0 9991 2 41846 98.6628 199.5069 0365683 292.2129 64.0646 14.37760559186122 CAS-2T 1 41847U 16066G 20149.23749053 .00000030 00000-0 15894-4 0 9996 2 41847 098.6555 199.5449 0364562 289.2457 066.9630 14.38065426186518 EO-88 1 42017U 17008BX 20149.09676389 .00001224 00000-0 49716-4 0 9994 2 42017 97.3606 216.9551 0007351 46.4943 313.6906 15.26447551182449 CAS-4B 1 42759U 17034B 20149.83403741 .00000005 00000-0 13767-4 0 9991 2 42759 43.0174 134.8451 0012219 270.7622 159.6306 15.09818239163001 CAS-4A 1 42761U 17034D 20149.84604410 -.00000117 00000-0 64212-5 0 9998 2 42761 43.0175 134.0936 0012792 270.9645 162.2935 15.09895726163002 UCLSat 1 42765U 17036A 20148.73066458 .00000948 00000-0 42565-4 0 9992 2 42765 97.3022 203.5273 0013123 98.5182 261.7543 15.23485423162839 NIUSat 1 42766U 17036B 20149.21547879 .00000780 00000-0 37343-4 0 9990 2 42766 097.3017 201.5265 0017262 091.5543 268.7670 15.21689800162612 LituanicaSAT 2 1 42768U 17036D 20149.10900628 .00001801 00000-0 76997-4 0 9998 2 42768 97.3076 203.8367 0016526 88.6564 271.6566 15.24003947162745 Aalto 1 1 42775U 17036L 20149.20089619 .00000639 00000-0 31030-4 0 9992 2 42775 097.2998 201.8598 0015631 091.0193 269.2835 15.21814982162592 URSA MAIOR 1 42776U 17036M 20149.19262101 .00000715 00000-0 34234-4 0 9994 2 42776 097.3009 202.1276 0015441 090.8353 269.4652 15.21995310162604 Max Valier Sat 1 42778U 17036P 20149.23231065 .00000795 00000-0 37108-4 0 9997 2 42778 097.3063 203.4259 0014071 093.7089 266.5757 15.22587037162650 Pegasus 1 42784U 17036V 20149.21161049 .00000943 00000-0 42725-4 0 9992 2 42784 097.3026 203.6931 0013662 097.9146 262.3642 15.23177071162695 NUDATSat 1 42787U 17036Y 20149.61403820 .00001422 00000-0 60641-4 0 9995 2 42787 097.3071 205.4337 0012479 086.9106 273.3563 15.24467049162677 SUCHAI 1 1 42788U 17036Z 20149.70281377 .00001114 00000-0 49189-4 0 9999 2 42788 97.3033 204.7409 0013225 94.9675 265.3073 15.23720962162872 SKCUBE 1 42789U 17036AA 20149.15576289 .00001059 00000-0 47118-4 0 9996 2 42789 097.3028 204.0671 0013091 096.9555 263.3172 15.23564807162705 VZLUSAT 1 1 42790U 17036AB 20149.34030311 .00001434 00000-0 61144-4 0 9992 2 42790 097.3054 205.1630 0012617 094.5162 265.7518 15.24456212162783 VENTA 1 1 42791U 17036AC 20149.45800083 .00001025 00000-0 45697-4 0 9997 2 42791 097.3027 204.4049 0012750 096.3599 263.9090 15.23550185162746 Robusta 1B 1 42792U 17036AD 20149.24340003 .00001076 00000-0 47548-4 0 9999 2 42792 097.3031 204.3973 0012694 096.9843 263.2838 15.23751642162746 D-SAT 1 42794U 17036AF 20149.64845764 .00000249 00000-0 26642-4 0 9992 2 42794 97.4948 183.2838 0127716 71.4085 290.0956 14.91270964159741 TechnoSat 1 42829U 17042E 20149.68800277 .00000239 00000-0 29473-4 0 9996 2 42829 97.5225 32.3937 0014129 357.3407 2.7735 14.91096026156341 QIKCOM-1 1 42983U 98067NF 20149.78833943 .00002834 00000-0 38606-4 0 9991 2 42983 51.6396 44.6233 0003473 355.4247 4.6715 15.61421404147213 AO-91 1 43017U 17073E 20149.22776872 .00000364 00000-0 33253-4 0 9993 2 43017 097.7239 062.2449 0258343 116.1084 246.6957 14.78913347136171 EcAMSat 1 43019U 98067NG 20149.79096954 .00005845 00000-0 61493-4 0 9991 2 43019 51.6413 31.2210 0003106 343.5681 16.5213 15.65957898229710 PICSAT 1 43132U 18004X 20149.29376890 .00001141 00000-0 49479-4 0 9990 2 43132 097.4478 220.7576 0011095 119.9485 240.2855 15.24371755131984 AO-92 1 43137U 18004AC 20149.19700106 .00000836 00000-0 37346-4 0 9995 2 43137 097.4463 220.4941 0010642 121.9773 238.2500 15.24088080131964 TianYi 2 1 43155U 18008A 20149.82132138 .00000445 00000-0 29894-4 0 9998 2 43155 97.4463 219.4112 0016546 211.5870 258.7206 15.11606640129955 Zhou Enlai 1 43156U 18008B 20149.84602124 .00000587 00000-0 38724-4 0 9997 2 43156 97.4515 219.2871 0013811 208.8498 263.1532 15.11151131129919 TianYi 6 1 43158U 18008D 20149.79287537 .00000954 00000-0 61306-4 0 9990 2 43158 97.4469 218.3171 0012696 208.1429 270.4333 15.10691229129858 S-Net G 1 43186U 18014G 20149.39327683 -.00000337 00000-0 -24333-4 0 9997 2 43186 097.6954 057.5569 0009839 296.0911 063.9297 14.96802081126697 S-Net H 1 43187U 18014H 20149.72735149 -.00000317 00000-0 -22661-4 0 9995 2 43187 97.6951 57.8647 0009837 294.7082 65.3115 14.96801879126742 S-Net J 1 43188U 18014J 20149.72721845 -.00000324 00000-0 -23187-4 0 9996 2 43188 97.6954 57.8934 0009829 294.8266 65.1933 14.96801722126744 S-Net K 1 43189U 18014K 20149.46022895 -.00000328 00000-0 -23595-4 0 9994 2 43189 097.6952 057.5973 0009828 295.7232 064.2974 14.96801065125255 FMN 1 1 43192U 18015A 20149.86032074 .00001882 00000-0 76835-4 0 9992 2 43192 97.4407 279.4478 0016507 153.5812 358.2996 15.25550176128917 Shaonian Xing 1 43199U 18015H 20149.85597444 .00001349 00000-0 55599-4 0 9997 2 43199 97.4189 277.7671 0017269 163.3322 348.6525 15.25723279128971 1KUNS-PF 1 43466U 98067NP 20149.78346290 .00354960 69888-4 46022-3 0 9995 2 43466 51.6227 354.3971 0006759 261.0343 98.9904 16.06474407117373 UBAKUSAT 1 43467U 98067NQ 20149.68294240 .00022287 00000-0 15378-3 0 9993 2 43467 51.6334 23.4212 0000456 115.3951 244.7096 15.74495397116994 EnduroSat One 1 43551U 98067NZ 20149.13450932 .00040131 00000-0 21665-3 0 9993 2 43551 051.6352 024.2193 0002666 056.2126 303.9129 15.79716987107167 EQUISat 1 43552U 98067PA 20149.67305091 .00022004 00000-0 15922-3 0 9996 2 43552 51.6366 30.2172 0003899 42.6388 317.4913 15.73387267107097 UiTMSat 1 1 43589U 98067PD 20149.03287907 .00030746 00000-0 19810-3 0 9993 2 43589 051.6353 031.7597 0003687 063.2598 296.8778 15.75872475102756 Maya 1 1 43590U 98067PE 20148.96223889 .00030998 00000-0 19969-3 0 9999 2 43590 51.6323 32.0425 0003591 58.6794 301.4557 15.75871923102675 Bhutan 1 1 43591U 98067PF 20149.06351307 .00031393 00000-0 20088-3 0 9993 2 43591 051.6368 031.2863 0003778 062.7119 297.4265 15.76018108102697 SiriusSat 1 1 43595U 98067PG 20149.21221801 .00023743 00000-0 16969-3 0 9992 2 43595 51.6336 35.2458 0001557 47.1290 312.9839 15.73630148101836 SiriusSat 2 1 43596U 98067PH 20149.08206299 .00025490 00000-0 18273-3 0 9993 2 43596 051.6343 036.6999 0001828 033.3176 326.7938 15.73512560101808 Tanusha-3 1 43597U 98067PJ 20149.80992039 .00058700 00000-0 26662-3 0 9999 2 43597 51.6301 21.0646 0001108 121.9994 238.1117 15.83294189102073 SurfSat 1 43614U 18070B 20149.44554243 .00002288 00000-0 59010-4 0 9990 2 43614 093.0199 146.3196 0017822 060.4948 299.8080 15.39097038095401 CP-7 DAVE 1 43615U 18070C 20149.54013617 .00002216 00000-0 57435-4 0 9997 2 43615 093.0202 146.3501 0017950 059.6966 300.6061 15.38956939095413 ELFIN-B 1 43616U 18070D 20149.40289554 .00003248 00000-0 80520-4 0 9995 2 43616 093.0165 146.2296 0018483 061.7318 298.5800 15.40262282095431 ELFIN-A 1 43617U 18070E 20149.43854676 .00003440 00000-0 84832-4 0 9996 2 43617 093.0216 146.7398 0017783 059.1105 301.1896 15.40434850095443 STARS-Me Mother 1 43640U 98067PQ 20149.12691407 .00010957 00000-0 11335-3 0 9991 2 43640 51.6360 51.3203 0003155 329.9134 30.1680 15.65307826 93541 CubeBel 1 1 43666U 18083E 20149.79897567 .00001088 00000-0 56346-4 0 9994 2 43666 97.4893 176.4568 0016558 70.7840 44.5511 15.18226718 87630 Changshagaoxin 1 43669U 18083H 20149.82574950 .00000577 00000-0 32314-4 0 9990 2 43669 97.4780 174.7371 0012422 66.2217 294.0318 15.17267265 87554 Ten-Koh 1 43677U 18084G 20149.54812079 .00000175 00000-0 23893-4 0 9992 2 43677 097.8803 266.6605 0015113 220.1448 139.8654 14.90283446085973 PO-101 1 43678U 18084H 20149.81922106 -.00000001 00000-0 56069-5 0 9997 2 43678 97.8815 268.2271 0008751 237.9092 122.1309 14.91628066 86093 IRVINE 01 1 43693U 18088D 20149.31877022 .00002332 00000-0 97657-4 0 9994 2 43693 85.0351 90.3394 0018512 13.6900 346.4840 15.22794653 85784 QO-100 1 43700U 18090A 20149.74806023 .00000145 00000-0 00000 0 0 9997 2 43700 0.0124 347.5969 0001166 87.8737 106.3786 1.00271230 5754 Reaktor Hello World 1 43743U 18096AA 20149.18498375 .00000990 00000-0 39596-4 0 9990 2 43743 97.4216 223.1608 0017465 194.4254 165.6489 15.27364590 83301 MinXSS-2 1 43758U 18099A 20149.79637845 .00000212 00000-0 24208-4 0 9994 2 43758 97.7066 222.0568 0014209 253.0636 106.9028 14.95652631 81018 AO-95 1 43770U 18099N 20149.76365340 .00000208 00000-0 24239-4 0 9992 2 43770 97.7065 221.4862 0012971 261.9771 97.9978 14.94980015 80979 RANGE-B 1 43772U 18099Q 20149.45173810 -.00000053 00000-0 37736-6 0 9996 2 43772 097.7129 221.6661 0012792 248.6203 111.3653 14.95163137080929 RANGE-A 1 43773U 18099R 20148.75005659 .00000533 00000-0 54022-4 0 9991 2 43773 97.7007 220.1472 0012033 250.9674 109.0243 14.94960096 80810 MOVE-II 1 43780U 18099Y 20149.78493246 .00000045 00000-0 92882-5 0 9991 2 43780 97.7064 221.7044 0012065 258.8236 101.1629 14.95382570 80973 SNUSat 2 1 43782U 18099AA 20149.19307723 .00000079 00000-0 12369-4 0 9990 2 43782 097.7057 221.1302 0011395 248.6947 111.3057 14.95245156080896 SnugLite 1 43784U 18099AC 20149.63119465 .00000177 00000-0 21234-4 0 9995 2 43784 97.7027 221.3927 0013528 256.3955 103.5759 14.95345897 80979 ITASat 1 1 43786U 18099AE 20149.76504711 .00000151 00000-0 18917-4 0 9999 2 43786 97.7080 221.8931 0013634 255.0163 104.9549 14.95321203 80994 EAGLET 1 1 43790U 18099AJ 20149.76205056 .00000321 00000-0 33951-4 0 9998 2 43790 97.7071 222.1362 0011893 259.9667 100.0212 14.95702363 80701 ESEO 1 43792U 18099AL 20149.77101176 -.00000239 00000-0 -16327-4 0 9997 2 43792 97.7044 221.9791 0011777 256.8450 103.1457 14.95597833 80768 CSIM 1 43793U 18099AM 20149.28640864 .00000917 00000-0 86738-4 0 9990 2 43793 097.7037 221.4716 0011336 253.4798 106.5178 14.96032663080675 Astrocast 0.1 1 43798U 18099AS 20148.68348571 .00000653 00000-0 63502-4 0 9999 2 43798 097.7065 221.1695 0011036 240.1638 119.8486 14.95865128080844 JO-97 1 43803U 18099AX 20149.17970256 -.00000194 00000-0 -12285-4 0 9996 2 43803 097.7039 221.1412 0013699 257.6716 102.2972 14.95493187080901 Suomi 100 1 43804U 18099AY 20149.18038031 -.00000209 00000-0 -13663-4 0 9992 2 43804 097.7035 221.1311 0013767 257.8312 102.1367 14.95482388080915 Al Farabi 2 1 43805U 18099AZ 20149.75835441 .00000572 00000-0 56628-4 0 9995 2 43805 97.7047 221.7775 0013616 255.0535 104.9179 14.95602633 81008 PWSat 2 1 43814U 18099BJ 20149.28559648 .00024093 00000-0 14219-2 0 9997 2 43814 097.7861 229.6073 0006147 193.2283 166.8872 15.11516188080671 CHOMPTT 1 43855U 18104G 20149.85631666 .00000721 00000-0 28775-4 0 9999 2 43855 85.0401 188.1724 0019517 119.0162 241.3033 15.22941283 80549 ISAT 1 43879U 18111D 20149.76966150 .00000495 00000-0 48977-4 0 9996 2 43879 97.7040 57.5155 0011999 316.5184 43.5090 14.96233988 75539 UWE-4 1 43880U 18111E 20149.21846298 .00000511 00000-0 50076-4 0 9990 2 43880 097.7046 057.2312 0011157 318.6177 041.4199 14.96458809075460 Sparrow 1 43881U 18111F 20149.20138166 .00000039 00000-0 85113-5 0 9994 2 43881 097.7049 057.2840 0011574 316.4683 043.5624 14.96518628077465 Lume 1 1 43908U 18111AJ 20149.36392508 .00000747 00000-0 32588-4 0 9996 2 43908 097.2674 049.8888 0020242 210.3091 149.6978 15.25004111078966 FO-98 1 43933U 19003B 20149.66782788 .00000525 00000-0 25801-4 0 9995 2 43933 97.2317 200.1629 0016540 315.7017 44.2895 15.22088225 75529 FO-99 1 43937U 19003F 20148.88017964 .00000944 00000-0 41177-4 0 9998 2 43937 097.2278 200.5877 0022420 299.4298 060.4702 15.24343381075505 Delphini 1 1 44030U 98067PW 20148.20782364 .00015173 00000-0 15341-3 0 9992 2 44030 051.6352 062.4406 0003826 025.7930 334.3256 15.65530374075188 MYSat 1 1 44045U 18092F 20149.42052179 .00002300 00000-0 74079-4 0 9999 2 44045 051.6451 139.5383 0010502 251.3388 108.6460 15.36594743072215 AstroCast 0.2 1 44083U 19018F 20149.75814920 .00000481 00000-0 24386-4 0 9990 2 44083 97.4220 211.0746 0011749 236.8895 123.1214 15.21582338 64382 AISTechSat 3 1 44103U 19018AB 20149.85256304 .00000611 00000-0 28834-4 0 9997 2 44103 97.4097 211.3242 0011711 254.3925 168.3953 15.23131802 64456 AISat 1 1 44104U 19018AC 20149.10610352 .00000495 00000-0 18494-4 0 9994 2 44104 97.4646 218.6498 0056539 285.5911 73.9094 15.31028095 64699 Raavana-1 1 44329U 98067QE 20149.04884530 .00007998 00000-0 11303-3 0 9994 2 44329 051.6394 076.4230 0004814 292.3743 067.6739 15.57540902053825 Uguisu 1 44330U 98067QF 20149.06027350 .00008164 00000-0 11555-3 0 9992 2 44330 051.6392 076.4954 0004816 290.6635 069.3841 15.57466479053808 NepaliSat-1 1 44331U 98067QG 20148.97743680 .00007751 00000-0 10964-3 0 9997 2 44331 051.6390 076.6950 0004881 293.7142 066.3338 15.57567176053808 Prox-1 1 44339U 19036A 20149.55663801 .00000811 00000-0 14270-3 0 9999 2 44339 024.0027 237.0825 0011193 298.1206 061.8179 14.52988978049231 Oculus-ASR 1 44348U 19036K 20149.39684692 .00006274 00000-0 90654-4 0 9992 2 44348 028.5158 154.7846 0368602 093.9595 270.3210 15.02259629050780 Armadillo 1 44352U 19036P 20149.31427456 .00009256 00000-0 13486-3 0 9992 2 44352 28.5297 151.5510 0356653 98.4871 265.6297 15.04869128 50754 NO-104 1 44354U 19036R 20149.34218762 .00006005 00000-0 84922-4 0 9998 2 44354 28.5276 152.6530 0365572 96.2715 267.9636 15.03258718 50781 NO-103 1 44355U 19036S 20149.08932467 .00011985 00000-0 16582-3 0 9994 2 44355 028.5276 146.6927 0345355 105.9761 257.9152 15.08391947050836 CP9 1 44360U 19036X 20149.26030571 .00019280 -54370-5 21174-3 0 9999 2 44360 028.5119 132.7419 0328637 129.5650 233.4546 15.15240132050869 Move-IIb 1 44398U 19038N 20149.43790991 .00000863 00000-0 53371-4 0 9997 2 44398 097.5348 110.9265 0024625 192.7426 167.3185 15.12283399049557 SONATE 1 44400U 19038Q 20149.46762478 .00000259 00000-0 18853-4 0 9998 2 44400 097.5384 110.9727 0024803 191.3063 168.7613 15.11937542049550 BeeSat 9 1 44412U 19038AC 20148.89090503 .00000618 00000-0 39332-4 0 9994 2 44412 097.5369 110.4814 0022073 198.4780 161.5651 15.12269701049165 JAISAT-1 1 44419U 19038F 20149.44693394 .00000623 00000-0 39146-4 0 9999 2 44419 097.5372 111.2796 0020996 195.3749 164.6846 15.12753557049579 LightSail-2 1 44420U 19036AC 20149.50883989 .00003560 00000-0 75223-3 0 9995 2 44420 024.0098 233.8378 0016905 299.2118 060.6724 14.55527756047414 Taurus 1 1 44530U 19059C 20149.79869667 .00001813 00000-0 52611-3 0 9995 2 44530 98.5683 230.6958 0014423 212.8597 147.1696 14.45525757 37502 MO-106 1 44830U 19084G 20149.28591430 .00039324 00000-0 24205-3 0 9996 2 44830 96.9763 18.2740 0025089 316.3547 43.5735 15.76652686 27273 TRSI-Sat 1 44831U 19084H 20149.41755784 .00039468 00000-0 24491-3 0 9992 2 44831 096.9774 018.4162 0025247 315.0076 044.9145 15.76462970027304 MO-105 1 44832U 19084J 20149.55194685 .00049354 00000-0 28920-3 0 9991 2 44832 096.9771 018.6748 0023729 313.7179 046.2123 15.77769631027324 Duchifat 3 1 44854U 19089C 20149.84499436 .00000303 00000-0 30902-4 0 9999 2 44854 36.9666 214.2302 0008955 273.0357 86.9285 14.99057313 25356 OPS-SAT 1 44878U 19092F 20149.29681394 -.00000066 00000-0 00000-0 0 9993 2 44878 097.4687 332.9145 0015580 069.4003 290.9064 15.15446464024480 FloripaSat 1 1 44885U 19093G 20149.74449998 .00000252 00000-0 38431-4 0 9993 2 44885 97.9577 226.0538 0016062 110.3504 249.9436 14.82025417 23781 RS-44 1 44909U 19096E 20149.57792402 .00000009 00000-0 00000-0 0 9992 2 44909 082.5224 008.5231 0216176 273.0716 084.5671 12.79707359019640 SwampSat-2 1 45115U 19071E 20149.48083513 .00007969 00000-0 24199-3 0 9991 2 45115 051.6414 099.3501 0013462 349.7895 010.2812 15.34928350018055 HO-107 1 45119U 19071J 20149.13065700 .00001374 00000-0 53262-4 0 9993 2 45119 51.6435 101.5020 0012292 343.6364 16.4220 15.33503392 18008 Phoenix 1 45258U 98067RB 20148.69597405 .00003172 00000-0 62039-4 0 9991 2 45258 051.6417 089.0618 0005372 267.4332 092.6043 15.50704289015254 AztechSat-1 1 45261U 98067RE 20148.28117999 .00005971 00000-0 10673-3 0 9991 2 45261 51.6417 90.7961 0007059 285.1500 74.8709 15.51512881 15219 QARMAN 1 45263U 98067RG 20149.33914173 .00004723 00000-0 87820-4 0 9992 2 45263 051.6418 085.8603 0006579 285.8188 074.2076 15.50931270015414 Quetzal 1 1 45598U 98067RL 20149.07946580 .00004864 00000-0 92863-4 0 9990 2 45598 51.6424 87.8729 0003455 24.3804 335.7348 15.50090569 4630 /EX
